When you browse on this site, cookies collect data to enhance your experience and personalize the content and advertising you see.
Visit our Privacy Policy to learn more. By continuing to use the site, you agree to this use of cookies and data.
  • In France
  • List of Countries
  • For 7 days
  • Water Temperature
  • Satellite Maps
  • Weather Map
  • Weather Widgets
  • user-avatar
    Login

    Hourly Weather Vinokurovo

    Today, 19 February, Tuesday

    Time Temperature Precipitation Wind Pressure Humidity
    00:00 -4°C° 0 mm 4 mps 756 mmHg 75%
    01:00 -3°C° 0 mm 4 mps 755 mmHg 76%
    02:00 -4°C° 0 mm 5 mps 755 mmHg 77%
    03:00 -4°C° 0 mm 5 mps 754 mmHg 79%
    04:00 -4°C° 0 mm 5 mps 754 mmHg 82%
    05:00 -4°C° 0 mm 5 mps 753 mmHg 84%
    06:00 -4°C° 0 mm 5 mps 753 mmHg 86%
    07:00 -2°C° 0 mm 5 mps 752 mmHg 87%
    08:00 -2°C° 0 mm 5 mps 752 mmHg 89%
    09:00 -2°C° 0 mm 5 mps 751 mmHg 88%
    10:00 -1°C° 0 mm 5 mps 751 mmHg 87%
    11:00 0°C° 0 mm 5 mps 750 mmHg 86%
    12:00 0°C° 0 mm 5 mps 750 mmHg 86%
    13:00 +1°C° 0 mm 5 mps 749 mmHg 85%
    14:00 +1°C° 0 mm 5 mps 748 mmHg 85%
    15:00 +1°C° 0 mm 5 mps 747 mmHg 86%
    16:00 +1°C° 0 mm 5 mps 747 mmHg 87%
    17:00 +1°C° 0 mm 4 mps 746 mmHg 88%
    18:00 +1°C° 0 mm 5 mps 745 mmHg 88%
    19:00 +1°C° 0 mm 5 mps 744 mmHg 89%
    20:00 0°C° 0 mm 5 mps 744 mmHg 89%
    21:00 0°C° 0.1 mm 5 mps 743 mmHg 89%
    22:00 0°C° 0.1 mm 5 mps 743 mmHg 89%
    23:00 0°C° 0.1 mm 5 mps 742 mmHg 89%

    Tomorrow, 20 February, Wednesday

    Time Temperature Precipitation Wind Pressure Humidity
    00:00 0°C° 0.3 mm 4 mps 742 mmHg 90%
    01:00 +1°C° 0.3 mm 4 mps 742 mmHg 91%
    02:00 +1°C° 0.3 mm 4 mps 742 mmHg 92%
    03:00 +1°C° 0.1 mm 4 mps 742 mmHg 92%
    04:00 0°C° 0.1 mm 4 mps 741 mmHg 92%
    05:00 0°C° 0.1 mm 4 mps 741 mmHg 92%
    06:00 0°C° 0.1 mm 5 mps 741 mmHg 92%
    07:00 +1°C° 0.1 mm 5 mps 741 mmHg 91%
    08:00 +1°C° 0.1 mm 5 mps 741 mmHg 91%
    09:00 +1°C° 0 mm 5 mps 741 mmHg 88%
    10:00 +1°C° 0 mm 5 mps 740 mmHg 86%
    11:00 +1°C° 0 mm 5 mps 740 mmHg 83%
    12:00 +1°C° 0.2 mm 5 mps 740 mmHg 84%
    13:00 +1°C° 0.2 mm 5 mps 740 mmHg 84%
    14:00 +1°C° 0.2 mm 5 mps 740 mmHg 84%
    15:00 +1°C° 0.2 mm 5 mps 740 mmHg 81%
    16:00 -1°C° 0.2 mm 6 mps 740 mmHg 78%
    17:00 -2°C° 0.2 mm 6 mps 740 mmHg 74%
    18:00 -2°C° 0.2 mm 6 mps 740 mmHg 77%
    19:00 -3°C° 0.2 mm 6 mps 741 mmHg 81%
    20:00 -4°C° 0.2 mm 6 mps 742 mmHg 84%
    21:00 -4°C° 0.2 mm 6 mps 742 mmHg 82%
    22:00 -4°C° 0.2 mm 6 mps 743 mmHg 81%
    23:00 -4°C° 0.2 mm 6 mps 743 mmHg 80%

    Day after tomorrow, 21 February, Thursday

    Time Temperature Precipitation Wind Pressure Humidity
    00:00 -4°C° 0.1 mm 6 mps 744 mmHg 78%
    01:00 -5°C° 0.1 mm 6 mps 745 mmHg 77%
    02:00 -5°C° 0.1 mm 6 mps 745 mmHg 76%
    03:00 -5°C° 0.1 mm 6 mps 746 mmHg 75%
    04:00 -6°C° 0.1 mm 6 mps 747 mmHg 74%
    05:00 -6°C° 0.1 mm 6 mps 747 mmHg 73%
    06:00 -8°C° 0 mm 6 mps 748 mmHg 72%
    07:00 -8°C° 0 mm 6 mps 749 mmHg 70%
    08:00 -9°C° 0 mm 6 mps 749 mmHg 69%
    09:00 -8°C° 0 mm 6 mps 750 mmHg 68%
    10:00 -8°C° 0 mm 6 mps 751 mmHg 67%
    11:00 -6°C° 0 mm 6 mps 751 mmHg 67%
    12:00 -6°C° 0 mm 6 mps 752 mmHg 66%
    13:00 -6°C° 0 mm 6 mps 752 mmHg 65%
    14:00 -6°C° 0 mm 5 mps 753 mmHg 63%
    15:00 -6°C° 0 mm 5 mps 754 mmHg 65%
    16:00 -7°C° 0 mm 5 mps 754 mmHg 66%
    17:00 -7°C° 0 mm 5 mps 755 mmHg 67%
    18:00 -8°C° 0 mm 5 mps 756 mmHg 67%
    19:00 -8°C° 0 mm 5 mps 757 mmHg 66%
    20:00 -8°C° 0 mm 5 mps 758 mmHg 66%
    21:00 -10°C° 0 mm 5 mps 758 mmHg 66%
    22:00 -9°C° 0 mm 4 mps 759 mmHg 66%
    23:00 -10°C° 0 mm 4 mps 760 mmHg 66%

    22 February, Friday

    Time Temperature Precipitation Wind Pressure Humidity
    00:00 -10°C° 0 mm 4 mps 760 mmHg 66%
    01:00 -10°C° 0 mm 4 mps 761 mmHg 66%
    02:00 -10°C° 0 mm 4 mps 762 mmHg 66%
    03:00 -10°C° 0 mm 4 mps 763 mmHg 68%
    04:00 -11°C° 0 mm 4 mps 763 mmHg 70%
    05:00 -11°C° 0 mm 4 mps 764 mmHg 72%
    06:00 -11°C° 0 mm 4 mps 765 mmHg 74%
    07:00 -10°C° 0 mm 3 mps 765 mmHg 75%
    08:00 -10°C° 0 mm 3 mps 766 mmHg 76%
    09:00 -9°C° 0 mm 3 mps 767 mmHg 70%
    10:00 -10°C° 0 mm 4 mps 767 mmHg 64%
    11:00 -9°C° 0 mm 4 mps 767 mmHg 58%
    12:00 -8°C° 0 mm 4 mps 767 mmHg 57%
    13:00 -8°C° 0 mm 5 mps 767 mmHg 57%
    14:00 -7°C° 0 mm 5 mps 767 mmHg 56%
    15:00 -7°C° 0 mm 5 mps 767 mmHg 59%
    16:00 -7°C° 0 mm 5 mps 767 mmHg 63%
    17:00 -8°C° 0 mm 4 mps 767 mmHg 66%
    18:00 -8°C° 0 mm 4 mps 768 mmHg 70%
    19:00 -8°C° 0 mm 4 mps 768 mmHg 73%
    20:00 -8°C° 0 mm 4 mps 769 mmHg 77%
    21:00 -8°C° 0 mm 3 mps 769 mmHg 77%
    22:00 -8°C° 0 mm 3 mps 769 mmHg 78%
    23:00 -7°C° 0 mm 2 mps 770 mmHg 78%

    23 February, Saturday

    Time Temperature Precipitation Wind Pressure Humidity
    00:00 -8°C° 0 mm 2 mps 770 mmHg 79%
    01:00 -8°C° 0 mm 2 mps 770 mmHg 80%
    02:00 -7°C° 0 mm 1 mps 770 mmHg 81%
    03:00 -7°C° 0 mm 1 mps 770 mmHg 82%
    04:00 -7°C° 0 mm 1 mps 769 mmHg 82%
    05:00 -7°C° 0 mm 1 mps 769 mmHg 83%
    06:00 -7°C° 0 mm 1 mps 769 mmHg 83%
    07:00 -7°C° 0 mm 1 mps 769 mmHg 83%
    08:00 -6°C° 0 mm 1 mps 768 mmHg 83%
    09:00 -7°C° 0 mm 2 mps 768 mmHg 81%
    10:00 -6°C° 0 mm 2 mps 767 mmHg 79%
    11:00 -6°C° 0 mm 2 mps 767 mmHg 77%
    12:00 -5°C° 0.3 mm 2 mps 766 mmHg 81%
    13:00 -6°C° 0.3 mm 3 mps 766 mmHg 85%
    14:00 -6°C° 0.3 mm 3 mps 766 mmHg 88%
    15:00 -6°C° 0.3 mm 3 mps 765 mmHg 88%
    16:00 -6°C° 0.3 mm 3 mps 765 mmHg 89%
    17:00 -6°C° 0.3 mm 3 mps 765 mmHg 89%
    18:00 -5°C° 0 mm 2 mps 765 mmHg 90%
    19:00 -5°C° 0 mm 2 mps 766 mmHg 91%
    20:00 -3°C° 0 mm 1 mps 766 mmHg 92%
    21:00 -3°C° 0 mm 1 mps 766 mmHg 93%
    22:00 -6°C° 0 mm 2 mps 767 mmHg 94%
    23:00 -6°C° 0 mm 2 mps 767 mmHg 95%

    24 February, Sunday

    Time Temperature Precipitation Wind Pressure Humidity
    00:00 -6°C° 0 mm 2 mps 767 mmHg 95%
    01:00 -6°C° 0 mm 1 mps 768 mmHg 95%
    02:00 -6°C° 0 mm 1 mps 768 mmHg 95%
    03:00 -6°C° 0 mm 1 mps 768 mmHg 95%
    04:00 -6°C° 0 mm 1 mps 768 mmHg 95%
    05:00 -7°C° 0 mm 2 mps 769 mmHg 95%
    06:00 -7°C° 0 mm 2 mps 769 mmHg 94%
    07:00 -6°C° 0 mm 2 mps 769 mmHg 94%
    08:00 -6°C° 0 mm 2 mps 769 mmHg 93%
    09:00 -5°C° 0 mm 2 mps 768 mmHg 90%
    10:00 -5°C° 0 mm 3 mps 768 mmHg 87%
    11:00 -4°C° 0 mm 3 mps 768 mmHg 84%
    12:00 -2°C° 0 mm 3 mps 767 mmHg 83%
    13:00 -2°C° 0 mm 3 mps 767 mmHg 81%
    14:00 -2°C° 0 mm 4 mps 766 mmHg 80%
    15:00 -2°C° 0 mm 4 mps 766 mmHg 82%
    16:00 -2°C° 0 mm 4 mps 765 mmHg 84%
    17:00 -2°C° 0 mm 4 mps 764 mmHg 85%
    18:00 -2°C° 0.2 mm 4 mps 763 mmHg 87%
    19:00 -2°C° 0.2 mm 4 mps 762 mmHg 88%
    20:00 -2°C° 0.2 mm 5 mps 762 mmHg 90%
    21:00 -2°C° 0.1 mm 4 mps 761 mmHg 91%
    22:00 -1°C° 0.1 mm 4 mps 760 mmHg 92%
    23:00 -1°C° 0.1 mm 4 mps 760 mmHg 93%
    Show more